Location: Bullenkuhlen
(53.7689°N, 9.7495°E)
Time: 18:42:18
(UTC+00:00)

STARLINK-52 - Pass Details

Date: 09 April 2020
Orbit: 393 x 394 km, 53.0° (Epoch: 04 June)

Event Time Altitude Azimuth Distance (km) Brightness Sun altitude
Rises 19:20:44 0° 222° (SW) 2,286 7.0 -10.2°
Reaches altitude 10° 19:22:58 10° 210° (SSW) 1,433 5.8 -10.5°
Maximum altitude 19:25:43 27° 150° (SSE) 803 4.0 -10.8°
Enters shadow 19:27:23 18° 104° (ESE) 1,074 4.5 -11.1°
